Location: Larne
(54.8508°N, 5.8183°W)
Time: 13:01:49
(UTC+01:00)

ISS - Pass Details

Date: 26 September 2021
Orbit: 417 x 423 km, 51.6° (Epoch: 16 October)

Event Time Altitude Azimuth Distance (km) Brightness Sun altitude
Rises 21:27:25 0° 272° (W) 2,367 1.2 -19.8°
Reaches altitude 10° 21:29:36 10° 264° (W) 1,503 -0.2 -20.0°
Enters shadow 21:32:23 37° 213° (SSW) 676 -2.8 -20.4°
